Regional Weather Roundup
Issued by NWS Sterling, VA

Home | Current Version | Previous Version | Graphics & Text | Print | Product List | Glossary On
Versions: 1 2 3 4 5 6 7 8 9 10 11 12 13 14 15 16 17 18 19 20 21 22 23 24 25 26 27 28 29 30 31 32 33 34 35 36 37 38 39 40 41 42 43 44 45 46 47 48 49 50
000
ASUS41 KLWX 270910
RWRLWX

REGIONAL WEATHER ROUNDUP
NATIONAL WEATHER SERVICE BALTIMORE MD/WASHINGTON DC
500 AM EDT MON APR 27 2015

Note: "FAIR" indicates few or no clouds below 12,000 feet
with no significant weather and/or obstructions to visibility.
 TC=TEMPERATURE CELSIUS

 * =Non NWS site. Station does not report precipitation (e.g. rain,
    snow, etc.), thunder, or fog.

DCZ001-MDZ009-015-VAZ040>042-051-053>054-271000-
WASHINGTON METRO

CITY           SKY/WX    TMP DP  RH WIND       PRES   REMARKS
WASHINGTON NAT MOCLDY    49  32  52 N6        29.76R
DULLES         FAIR      40  32  73 NW3       29.76S
ANDREWS AFB    CLEAR     42  31  65 N7        29.73S
FT BELVOIR     PTCLDY    44  32  62 W3        29.75S
QUANTICO       CLEAR     45  35  68 NW7       29.77R
COLLEGE PARK*  CLOUDY    41  36  81 CALM      29.74F
LEESBURG*      MOCLDY    41  36  81 NW3       29.77S
MANASSAS*      CLEAR     43  34  70 NW5       29.76S
GAITHERSBURG*  CLOUDY    41  30  65 CALM      29.79S

$$

MDZ006>007-011-014-271000-
BALTIMORE METRO

CITY           SKY/WX    TMP DP  RH WIND       PRES   REMARKS
BWI AIRPORT    MOCLDY    40  35  83 NW3       29.74S
MD SCIENCE CTR   N/A     51  28  41 MISG      29.74F
MARTIN STATE   PTCLDY    45  36  70 W3        29.75F
ANNAPOLIS      PTCLDY    49  38  65 N5        29.73S
FORT MEADE*    CLOUDY    37  34  87 CALM      29.76S

$$

MDZ012-015-019>023-271000-
MARYLAND EASTERN SHORE

CITY           SKY/WX    TMP DP  RH WIND       PRES   REMARKS
OCEAN CITY     CLEAR     37  36  96 CALM      29.72R
SALISBURY      CLEAR     38  36  92 CALM      29.72R
BAY BRIDGE AP*   N/A    N/A N/A N/A N5        29.74S
CAMBRIDGE*     CLEAR     41  37  87 CALM      29.72S
EASTON*        PTCLDY    43  37  78 CALM      29.76S

$$

MDZ017>025-271000-
SOUTHERN MARYLAND

CITY           SKY/WX    TMP DP  RH WIND       PRES   REMARKS
PATUXENT RIVER CLEAR     49  40  71 N10       29.72R
ST INIGOES     CLEAR     45  41  86 N5        29.71S
LEONARDTOWN*   CLEAR     46  37  71 CALM      29.74R

$$

MDZ003>005-271000-
NORTH CENTRAL MARYLAND

CITY           SKY/WX    TMP DP  RH WIND       PRES   REMARKS
FREDERICK*     CLOUDY    41  34  75 CALM      29.78S
HAGERSTOWN APT MOCLDY    45  28  51 NW3       29.76S
WESTMINSTER*   CLOUDY    45  30  57 CALM      29.74S

$$

MDZ501>502-271000-
WESTERN MARYLAND

CITY           SKY/WX    TMP DP  RH WIND       PRES   REMARKS
OAKLAND*       CLEAR     32  32 100 NW5       29.76F
CUMBERLAND*    MOCLDY    45  32  61 NW3       29.83S

$$

VAZ025>031-271000-
SHENANDOAH VALLEY

CITY           SKY/WX    TMP DP  RH WIND       PRES   REMARKS
WINCHESTER*    MOCLDY    43  27  52 W5        29.77S
FRONT ROYAL*   FAIR      39  32  75 S5        29.77S
LURAY*         FAIR      41  36  81 CALM      29.78S
NEW MARKET*    FAIR      36  32  85 CALM      29.78S
STAUNTON*      CLEAR     35  33  90 CALM      29.79S
WAYNESBORO*    FAIR      35  35  99 CALM      29.77S

$$

WVZ021-048>050-054>055-271000-
EASTERN WEST VIRGINIA PANHANDLE

CITY           SKY/WX    TMP DP  RH WIND       PRES   REMARKS
MARTINSBURG    MOCLDY    42  30  62 S3        29.77S
PETERSBURG*    MOCLDY    37  32  83 CALM      29.81S

$$

VAZ036>039-050-271000-
CENTRAL FOOTHILLS

CITY           SKY/WX    TMP DP  RH WIND       PRES   REMARKS
CHARLOTTESVILL CLEAR     45  33  63 CALM      29.76R
CULPEPER*      CLEAR     41  36  81 CALM      29.77R
ORANGE*        CLEAR     46  32  57 NW6       29.77S
GORDONSVILLE*  FAIR      47  31  54 N6        29.76R
WARRENTON*     FAIR      41  35  79 CALM      29.76R

$$

VAZ055>057-271000-
NORTH AND CENTRAL PIEDMONT

CITY           SKY/WX    TMP DP  RH WIND       PRES   REMARKS
FREDERICKSBRG* CLEAR     42  37  85 CALM      29.75S
STAFFORD*      CLEAR     37  33  86 NW6       29.80R

$$

NCZ024-NYZ072-PAZ021-071-VAZ022-071-271000-
OTHER REGIONAL OBSERVATIONS

CITY           SKY/WX    TMP DP  RH WIND       PRES   REMARKS
NEW YORK CITY  CLOUDY    49  29  46 NW6       29.69S
PHILADELPHIA   PTCLDY    48  29  47 NW7       29.73S
PITTSBURGH     PTCLDY    38  31  76 NW9       29.82S
ROANOKE        PTCLDY    41  36  82 NW6       29.79S
RICHMOND       CLEAR     44  40  85 W3        29.73R
RALEIGH        PTCLDY    40  39  97 CALM      29.76F

$$

ANZ530>537-271000-
MARINE OBSERVATIONS

STATION/POSITION TIME  TEMP    WIND        PRES
                       AIR SEA DIR/SP/G
                 (UTC) (F)     (DEG/KT/KT) (MB)
THOMAS PT LIGHT  0900   51 53  340/  7/  8 1007.5R
BALT KEY BRIDGE  0800   51     340/  6/  7 1007.1S
COVE POINT       0800   52      40/ 18/ 20 1006.9R
LEWISETTA        0800   47 57              1005.7R
SOLOMONS ISLAND  0800      55                N/A
PINEY POINT      0800           40/  6/  8   N/A

$$



USA.gov is the U.S. government's official web portal to all federal, state and local government web resources and services.